{"data":{"norad_id":61621,"intl_designator":"2024-191A","name":"STARLINK-32302","alt_names":[],"object_type":"PAYLOAD","status":"ACTIVE","operator":null,"country":"US","launch_date":"2024-10-23","launch_site_code":"AFETR","launch_vehicle":null,"mission":null,"orbit_class":"UNKNOWN","rcs_meters":null,"size_class":null,"mass_kg":null,"dimensions":null,"purposes":["comms"],"wikipedia_slug":null,"has_3d_model":false,"image_url":null,"decayed_at":null,"tle_current":{"epoch":"2026-09-20T23:04:06.383136Z","epoch_age_seconds":152471,"freshness":"FRESH","line1":"1 61621U 24191A   26263.96118499 -.00002194  00000+0 -70254-4 0  9998","line2":"2 61621  43.0031 131.4554 0001228 251.8598 108.2120 15.27560671108152","mean_motion":15.27560671,"eccentricity":0.0001228,"inclination_deg":43.0031,"raan_deg":131.4554,"arg_perigee_deg":251.8598,"mean_anomaly_deg":108.212,"bstar":-7.0254e-5,"rev_number":10815,"period_min":94.267941518638,"perigee_km":482.26441386944,"apogee_km":483.94953538961,"semimajor_km":6861.2439746295,"source":"CELESTRAK","updated_at":"2026-09-22T09:00:49.394532Z"}}}